TimeEST,TemperatureF,Dew PointF,Humidity,Sea Level PressureIn,VisibilityMPH,Wind Direction,Wind SpeedMPH,Gust SpeedMPH,PrecipitationIn,Events,Conditions,WindDirDegrees,DateUTC
12:15 AM,41.0,30.2,65,29.84,10.0,West,10.4,18.4,N/A,,Mostly Cloudy,280,2012-12-30 05:15:00
12:35 AM,41.0,30.2,65,29.84,10.0,West,9.2,-,N/A,,Clear,280,2012-12-30 05:35:00
1:15 AM,39.2,30.2,70,29.87,10.0,West,10.4,-,N/A,,Scattered Clouds,280,2012-12-30 06:15:00
1:35 AM,39.2,30.2,70,29.88,10.0,WNW,12.7,-,N/A,,Mostly Cloudy,290,2012-12-30 06:35:00
1:55 AM,39.2,30.2,70,29.89,10.0,West,8.1,-,N/A,,Scattered Clouds,280,2012-12-30 06:55:00
2:15 AM,37.4,30.2,75,29.90,10.0,West,6.9,-,N/A,,Clear,280,2012-12-30 07:15:00
2:35 AM,37.4,30.2,75,29.91,10.0,West,6.9,-,N/A,,Clear,280,2012-12-30 07:35:00
2:55 AM,37.4,30.2,75,29.93,10.0,West,6.9,-,N/A,,Clear,270,2012-12-30 07:55:00
3:15 AM,35.6,30.2,81,29.94,10.0,West,5.8,-,N/A,,Clear,270,2012-12-30 08:15:00
3:35 AM,35.6,30.2,81,29.95,10.0,West,5.8,-,N/A,,Clear,270,2012-12-30 08:35:00
3:55 AM,37.4,28.4,70,29.96,10.0,West,8.1,-,N/A,,Clear,270,2012-12-30 08:55:00
4:15 AM,37.4,28.4,70,29.96,10.0,West,6.9,-,N/A,,Clear,280,2012-12-30 09:15:00
4:35 AM,35.6,28.4,75,29.97,10.0,West,8.1,-,N/A,,Clear,270,2012-12-30 09:35:00
4:55 AM,35.6,28.4,75,29.98,10.0,West,8.1,-,N/A,,Clear,270,2012-12-30 09:55:00
5:15 AM,35.6,28.4,75,30.00,10.0,West,9.2,-,N/A,,Clear,270,2012-12-30 10:15:00
5:35 AM,35.6,28.4,75,30.01,10.0,West,6.9,-,N/A,,Clear,270,2012-12-30 10:35:00
5:55 AM,35.6,28.4,75,30.03,10.0,West,8.1,-,N/A,,Clear,270,2012-12-30 10:55:00
6:15 AM,35.6,28.4,75,30.04,10.0,West,6.9,-,N/A,,Clear,270,2012-12-30 11:15:00
6:35 AM,35.6,28.4,75,30.06,10.0,West,5.8,-,N/A,,Clear,270,2012-12-30 11:35:00
6:55 AM,35.6,26.6,70,30.07,10.0,West,8.1,-,N/A,,Clear,270,2012-12-30 11:55:00
7:15 AM,33.8,26.6,75,30.09,10.0,West,8.1,-,N/A,,Clear,260,2012-12-30 12:15:00
7:35 AM,33.8,26.6,75,30.10,10.0,West,8.1,-,N/A,,Clear,270,2012-12-30 12:35:00
7:55 AM,35.6,26.6,70,30.12,10.0,West,8.1,-,N/A,,Clear,260,2012-12-30 12:55:00
8:15 AM,35.6,26.6,70,30.13,10.0,West,9.2,-,N/A,,Clear,260,2012-12-30 13:15:00
8:35 AM,37.4,26.6,65,30.14,10.0,West,8.1,-,N/A,,Clear,270,2012-12-30 13:35:00
8:55 AM,37.4,26.6,65,30.15,10.0,West,12.7,17.3,N/A,,Clear,260,2012-12-30 13:55:00
9:15 AM,39.2,26.6,61,30.16,10.0,West,13.8,-,N/A,,Clear,270,2012-12-30 14:15:00
9:35 AM,41.0,26.6,57,30.18,10.0,WNW,13.8,18.4,N/A,,Clear,290,2012-12-30 14:35:00
9:55 AM,42.8,26.6,53,30.19,10.0,WNW,11.5,18.4,N/A,,Clear,290,2012-12-30 14:55:00
10:15 AM,42.8,24.8,49,30.20,10.0,WNW,11.5,16.1,N/A,,Clear,300,2012-12-30 15:15:00
10:35 AM,42.8,24.8,49,30.20,10.0,NW,19.6,-,N/A,,Clear,310,2012-12-30 15:35:00
10:55 AM,44.6,24.8,46,30.20,10.0,WNW,18.4,24.2,N/A,,Clear,290,2012-12-30 15:55:00
11:15 AM,44.6,24.8,46,30.21,10.0,NNW,15.0,25.3,N/A,,Scattered Clouds,330,2012-12-30 16:15:00
11:35 AM,44.6,23.0,43,30.20,10.0,NW,18.4,25.3,N/A,,Scattered Clouds,310,2012-12-30 16:35:00
11:55 AM,44.6,21.2,39,30.20,10.0,NW,15.0,23.0,N/A,,Scattered Clouds,320,2012-12-30 16:55:00
12:15 PM,44.6,21.2,39,30.19,10.0,NW,15.0,24.2,N/A,,Mostly Cloudy,320,2012-12-30 17:15:00
12:35 PM,44.6,21.2,39,30.19,10.0,NW,15.0,25.3,N/A,,Scattered Clouds,310,2012-12-30 17:35:00
12:55 PM,46.4,21.2,37,30.19,10.0,WNW,21.9,27.6,N/A,,Scattered Clouds,300,2012-12-30 17:55:00
1:15 PM,46.4,19.4,34,30.19,10.0,WNW,20.7,34.5,N/A,,Scattered Clouds,300,2012-12-30 18:15:00
1:35 PM,46.4,21.2,37,30.19,10.0,WNW,16.1,20.7,N/A,,Scattered Clouds,290,2012-12-30 18:35:00
1:55 PM,46.4,21.2,37,30.20,10.0,West,13.8,26.5,N/A,,Scattered Clouds,280,2012-12-30 18:55:00
2:15 PM,46.4,21.2,37,30.20,10.0,West,15.0,-,N/A,,Scattered Clouds,280,2012-12-30 19:15:00
2:35 PM,46.4,23.0,40,30.22,10.0,West,13.8,23.0,N/A,,Scattered Clouds,280,2012-12-30 19:35:00
2:55 PM,46.4,21.2,37,30.23,10.0,West,18.4,21.9,N/A,,Clear,280,2012-12-30 19:55:00
3:15 PM,46.4,19.4,34,30.23,10.0,NW,13.8,20.7,N/A,,Clear,310,2012-12-30 20:15:00
3:35 PM,46.4,19.4,34,30.25,10.0,WNW,11.5,-,N/A,,Clear,300,2012-12-30 20:35:00
3:55 PM,44.6,19.4,37,30.25,10.0,WNW,13.8,18.4,N/A,,Clear,300,2012-12-30 20:55:00
4:15 PM,44.6,21.2,39,30.27,10.0,West,16.1,21.9,N/A,,Clear,270,2012-12-30 21:15:00
4:35 PM,44.6,21.2,39,30.28,10.0,West,9.2,-,N/A,,Clear,280,2012-12-30 21:35:00
4:55 PM,42.8,21.2,42,30.29,10.0,West,8.1,-,N/A,,Clear,280,2012-12-30 21:55:00
5:15 PM,39.2,23.0,52,30.29,10.0,West,4.6,-,N/A,,Clear,260,2012-12-30 22:15:00
5:35 PM,39.2,23.0,52,30.30,10.0,Calm,Calm,-,N/A,,Clear,0,2012-12-30 22:35:00
5:55 PM,37.4,26.6,65,30.30,10.0,Calm,Calm,-,N/A,,Clear,0,2012-12-30 22:55:00
6:15 PM,33.8,26.6,75,30.30,10.0,Calm,Calm,-,N/A,,Clear,0,2012-12-30 23:15:00
6:35 PM,33.8,26.6,75,30.31,10.0,Calm,Calm,-,N/A,,Clear,0,2012-12-30 23:35:00
6:55 PM,35.6,24.8,65,30.30,10.0,Calm,Calm,-,N/A,,Clear,0,2012-12-30 23:55:00
7:15 PM,33.8,26.6,75,30.31,10.0,Calm,Calm,-,N/A,,Clear,0,2012-12-31 00:15:00
7:35 PM,33.8,26.6,75,30.31,10.0,Calm,Calm,-,N/A,,Clear,0,2012-12-31 00:35:00
7:55 PM,32.0,26.6,80,30.31,10.0,Calm,Calm,-,N/A,,Clear,0,2012-12-31 00:55:00
8:15 PM,30.2,24.8,80,30.32,10.0,Calm,Calm,-,N/A,,Clear,0,2012-12-31 01:15:00
8:35 PM,28.4,26.6,93,30.33,10.0,Calm,Calm,-,N/A,,Clear,0,2012-12-31 01:35:00
8:55 PM,28.4,24.8,86,30.33,10.0,Calm,Calm,-,N/A,,Clear,0,2012-12-31 01:55:00
9:15 PM,30.2,24.8,80,30.33,10.0,Calm,Calm,-,N/A,,Clear,0,2012-12-31 02:15:00
9:35 PM,32.0,24.8,75,30.34,10.0,SSW,3.5,-,N/A,,Clear,210,2012-12-31 02:35:00
9:55 PM,30.2,24.8,80,30.35,10.0,WSW,3.5,-,N/A,,Clear,240,2012-12-31 02:55:00
10:15 PM,32.0,23.0,69,30.36,10.0,Calm,Calm,-,N/A,,Clear,0,2012-12-31 03:15:00
10:35 PM,33.8,24.8,70,30.37,10.0,Calm,Calm,-,N/A,,Clear,0,2012-12-31 03:35:00
10:55 PM,30.2,24.8,80,30.37,10.0,Calm,Calm,-,N/A,,Clear,0,2012-12-31 03:55:00
11:15 PM,30.2,24.8,80,30.37,10.0,Calm,Calm,-,N/A,,Clear,0,2012-12-31 04:15:00
11:35 PM,28.4,24.8,86,30.35,10.0,Calm,Calm,-,N/A,,Clear,0,2012-12-31 04:35:00
11:55 PM,30.2,24.8,80,30.35,10.0,Calm,Calm,-,N/A,,Clear,0,2012-12-31 04:55:00